Location: Dürabuch
(48.2640°N, 11.2185°E)
Time: 03:45:33
(UTC+00:00)

AQUA - Pass Details

Date: 23 May 2024
Orbit: 693 x 697 km, 98.3° (Epoch: 19 June)

Event Time Altitude Azimuth Distance (km) Brightness Sun altitude
Rises 01:57:48 0° 13° (NNE) 3,086 8.4 -11.7°
Reaches altitude 10° 02:00:03 10° 13° (NNE) 2,164 7.4 -11.5°
Maximum altitude 02:04:48 84° 286° (WNW) 705 3.8 -11.0°
Enters shadow 02:09:14 12° 198° (SSW) 2,035 5.6 -10.5°
